TimeCST,TemperatureF,Dew PointF,Humidity,Sea Level PressureIn,VisibilityMPH,Wind Direction,Wind SpeedMPH,Gust SpeedMPH,PrecipitationIn,Events,Conditions,WindDirDegrees,DateUTC
12:53 AM,43.0,28.9,58,30.22,10.0,SSE,6.9,-,N/A,,Mostly Cloudy,160,2012-11-18 06:53:00
1:53 AM,41.0,28.9,62,30.21,10.0,SE,4.6,-,N/A,,Overcast,140,2012-11-18 07:53:00
2:53 AM,39.9,28.9,65,30.21,10.0,SE,5.8,-,N/A,,Scattered Clouds,130,2012-11-18 08:53:00
3:53 AM,45.0,28.9,53,30.20,10.0,SSE,8.1,-,N/A,,Mostly Cloudy,160,2012-11-18 09:53:00
4:53 AM,44.1,28.9,55,30.19,10.0,SSE,8.1,-,N/A,,Mostly Cloudy,160,2012-11-18 10:53:00
5:53 AM,39.9,30.0,68,30.20,10.0,SSE,8.1,-,N/A,,Clear,160,2012-11-18 11:53:00
6:53 AM,42.1,28.9,60,30.19,10.0,South,9.2,-,N/A,,Clear,170,2012-11-18 12:53:00
7:53 AM,44.1,30.0,58,30.20,10.0,South,9.2,-,N/A,,Clear,170,2012-11-18 13:53:00
8:53 AM,48.9,30.9,50,30.18,10.0,South,16.1,21.9,N/A,,Clear,180,2012-11-18 14:53:00
9:53 AM,52.0,30.9,45,30.19,10.0,South,21.9,29.9,N/A,,Clear,190,2012-11-18 15:53:00
10:53 AM,55.9,33.1,42,30.18,10.0,South,16.1,23.0,N/A,,Clear,180,2012-11-18 16:53:00
11:53 AM,60.1,33.1,36,30.15,10.0,South,15.0,24.2,N/A,,Clear,190,2012-11-18 17:53:00
12:53 PM,62.1,33.1,34,30.12,10.0,South,18.4,24.2,N/A,,Clear,170,2012-11-18 18:53:00
1:53 PM,61.0,34.0,36,30.10,10.0,South,16.1,23.0,N/A,,Partly Cloudy,170,2012-11-18 19:53:00
2:53 PM,62.1,35.1,37,30.09,10.0,SSE,16.1,23.0,N/A,,Mostly Cloudy,160,2012-11-18 20:53:00
3:53 PM,60.1,36.0,41,30.09,10.0,SSE,16.1,-,N/A,,Clear,150,2012-11-18 21:53:00
4:53 PM,57.9,36.0,44,30.09,10.0,SE,12.7,-,N/A,,Mostly Cloudy,140,2012-11-18 22:53:00
5:53 PM,57.0,36.0,45,30.09,10.0,SE,12.7,-,N/A,,Mostly Cloudy,140,2012-11-18 23:53:00
6:53 PM,57.0,37.0,47,30.12,10.0,SSE,11.5,-,N/A,,Overcast,150,2012-11-19 00:53:00
7:53 PM,55.4,37.4,51,30.11,10.0,SSE,10.4,-,N/A,,Overcast,160,2012-11-19 01:53:00
8:53 PM,54.0,37.0,53,30.11,10.0,SSE,11.5,-,0.00,,Overcast,150,2012-11-19 02:53:00
9:53 PM,53.1,37.0,55,30.10,10.0,SSE,9.2,-,N/A,,Clear,150,2012-11-19 03:53:00
10:53 PM,53.1,36.0,52,30.09,10.0,SSE,9.2,-,N/A,,Clear,150,2012-11-19 04:53:00
11:53 PM,55.0,35.1,47,30.08,10.0,SSE,11.5,-,N/A,,Clear,160,2012-11-19 05:53:00